Location: Rioux
(40.7500°S, 175.7500°E)
Time: 09:22:15
(UTC+00:00)

SL-16 R/B - Pass Details

Date: 12 June 2024
Orbit: 839 x 849 km, 71.0° (Epoch: 20 July)

Event Time Altitude Azimuth Distance (km) Brightness Sun altitude
Exits shadow 18:07:59 13° 206° (SSW) 2,276 4.1 -16.5°
Drops below altitude 10° 18:09:19 10° 193° (SSW) 2,492 4.4 -16.3°
Sets 18:12:59 0° 170° (S) 3,432 5.3 -15.6°
